• In Netherlands
  • List of Countries
  • For 7 days
  • Water Temperature
  • Satellite Maps
  • Weather Map
  • Weather Widgets
  • user-avatar
    Login

    Hourly Weather Belize

    Today, 22 January, Monday

    Time Temperature Precipitation Wind Pressure Humidity
    00:00 +24°C° 0.1 mm 3 mps 759 mmHg 98%
    01:00 +24°C° 0.2 mm 3 mps 759 mmHg 99%
    02:00 +24°C° 0.2 mm 3 mps 759 mmHg 99%
    03:00 +24°C° 0.2 mm 3 mps 759 mmHg 99%
    04:00 +24°C° 0.2 mm 3 mps 759 mmHg 99%
    05:00 +24°C° 0.2 mm 3 mps 759 mmHg 99%
    06:00 +24°C° 0.2 mm 3 mps 759 mmHg 99%
    07:00 +25°C° 0.2 mm 3 mps 759 mmHg 95%
    08:00 +26°C° 0.2 mm 3 mps 760 mmHg 91%
    09:00 +28°C° 0.2 mm 4 mps 760 mmHg 87%
    10:00 +29°C° 0.2 mm 4 mps 760 mmHg 79%
    11:00 +30°C° 0.2 mm 4 mps 760 mmHg 72%
    12:00 +32°C° 0.2 mm 4 mps 760 mmHg 65%
    13:00 +32°C° 0 mm 4 mps 759 mmHg 64%
    14:00 +32°C° 0 mm 4 mps 759 mmHg 62%
    15:00 +32°C° 0 mm 4 mps 758 mmHg 61%
    16:00 +29°C° 0 mm 4 mps 758 mmHg 70%
    17:00 +27°C° 0 mm 3 mps 759 mmHg 79%
    18:00 +25°C° 0 mm 3 mps 759 mmHg 89%
    19:00 +25°C° 0 mm 3 mps 759 mmHg 92%
    20:00 +24°C° 0 mm 3 mps 759 mmHg 95%
    21:00 +24°C° 0 mm 3 mps 760 mmHg 98%
    22:00 +24°C° 0.2 mm 3 mps 760 mmHg 98%
    23:00 +24°C° 0.2 mm 3 mps 760 mmHg 98%

    Tomorrow, 23 January, Tuesday

    Time Temperature Precipitation Wind Pressure Humidity
    00:00 +24°C° 0.2 mm 3 mps 760 mmHg 99%
    01:00 +24°C° 1 mm 3 mps 759 mmHg 99%
    02:00 +24°C° 1 mm 3 mps 759 mmHg 99%
    03:00 +24°C° 1 mm 3 mps 759 mmHg 99%
    04:00 +24°C° 1.7 mm 3 mps 759 mmHg 99%
    05:00 +24°C° 1.7 mm 3 mps 759 mmHg 99%
    06:00 +24°C° 1.7 mm 3 mps 759 mmHg 99%
    07:00 +25°C° 1.2 mm 3 mps 760 mmHg 96%
    08:00 +26°C° 1.2 mm 3 mps 761 mmHg 93%
    09:00 +26°C° 1.2 mm 3 mps 761 mmHg 89%
    10:00 +27°C° 0.7 mm 3 mps 761 mmHg 85%
    11:00 +28°C° 0.7 mm 3 mps 761 mmHg 80%
    12:00 +29°C° 0.7 mm 3 mps 761 mmHg 76%
    13:00 +28°C° 0.8 mm 3 mps 760 mmHg 80%
    14:00 +28°C° 0.8 mm 3 mps 759 mmHg 84%
    15:00 +28°C° 0.8 mm 4 mps 759 mmHg 89%
    16:00 +27°C° 0.3 mm 3 mps 759 mmHg 91%
    17:00 +26°C° 0.3 mm 3 mps 759 mmHg 94%
    18:00 +25°C° 0.3 mm 3 mps 760 mmHg 97%
    19:00 +24°C° 0.2 mm 3 mps 760 mmHg 97%
    20:00 +24°C° 0.2 mm 3 mps 761 mmHg 98%
    21:00 +24°C° 0.2 mm 3 mps 761 mmHg 98%
    22:00 +23°C° 0.2 mm 4 mps 761 mmHg 99%
    23:00 +23°C° 0.2 mm 4 mps 761 mmHg 99%

    Day after tomorrow, 24 January, Wednesday

    Time Temperature Precipitation Wind Pressure Humidity
    00:00 +23°C° 0.2 mm 4 mps 761 mmHg 99%
    01:00 +23°C° 0.1 mm 4 mps 761 mmHg 99%
    02:00 +23°C° 0.1 mm 4 mps 761 mmHg 99%
    03:00 +23°C° 0.1 mm 4 mps 761 mmHg 99%
    04:00 +22°C° 0.2 mm 4 mps 761 mmHg 99%
    05:00 +22°C° 0.2 mm 4 mps 761 mmHg 99%
    06:00 +22°C° 0.2 mm 4 mps 761 mmHg 99%
    07:00 +23°C° 0.7 mm 4 mps 762 mmHg 98%
    08:00 +23°C° 0.7 mm 4 mps 762 mmHg 96%
    09:00 +25°C° 0.7 mm 4 mps 763 mmHg 95%
    10:00 +26°C° 0.8 mm 3 mps 763 mmHg 93%
    11:00 +26°C° 0.8 mm 3 mps 762 mmHg 92%
    12:00 +27°C° 0.8 mm 3 mps 762 mmHg 90%
    13:00 +27°C° 0.4 mm 3 mps 762 mmHg 88%
    14:00 +27°C° 0.4 mm 3 mps 761 mmHg 86%
    15:00 +27°C° 0.4 mm 3 mps 760 mmHg 83%
    16:00 +26°C° 0.2 mm 3 mps 761 mmHg 88%
    17:00 +25°C° 0.2 mm 3 mps 761 mmHg 92%
    18:00 +24°C° 0.2 mm 3 mps 761 mmHg 97%
    19:00 +24°C° 0.3 mm 3 mps 762 mmHg 97%
    20:00 +24°C° 0.3 mm 3 mps 762 mmHg 98%
    21:00 +24°C° 0.3 mm 3 mps 763 mmHg 98%
    22:00 +24°C° 0.9 mm 3 mps 763 mmHg 98%
    23:00 +24°C° 0.9 mm 3 mps 763 mmHg 99%

    25 January, Thursday

    Time Temperature Precipitation Wind Pressure Humidity
    00:00 +24°C° 0.9 mm 3 mps 763 mmHg 99%
    01:00 +22°C° 1.3 mm 3 mps 762 mmHg 99%
    02:00 +22°C° 1.3 mm 4 mps 762 mmHg 99%
    03:00 +22°C° 1.3 mm 4 mps 762 mmHg 99%
    04:00 +22°C° 1 mm 4 mps 762 mmHg 99%
    05:00 +22°C° 1 mm 4 mps 762 mmHg 99%
    06:00 +22°C° 1 mm 4 mps 762 mmHg 99%
    07:00 +22°C° 0.9 mm 4 mps 763 mmHg 97%
    08:00 +23°C° 0.9 mm 4 mps 763 mmHg 96%
    09:00 +25°C° 0.9 mm 4 mps 764 mmHg 95%
    10:00 +26°C° 0.9 mm 4 mps 764 mmHg 93%
    11:00 +26°C° 0.9 mm 3 mps 763 mmHg 92%
    12:00 +26°C° 0.9 mm 3 mps 763 mmHg 91%
    13:00 +26°C° 0.9 mm 3 mps 762 mmHg 92%
    14:00 +26°C° 0.9 mm 3 mps 762 mmHg 93%
    15:00 +26°C° 0.9 mm 3 mps 761 mmHg 94%
    16:00 +25°C° 0.6 mm 3 mps 761 mmHg 95%
    17:00 +25°C° 0.6 mm 4 mps 761 mmHg 97%
    18:00 +23°C° 0.6 mm 4 mps 761 mmHg 98%
    19:00 +23°C° 0.9 mm 4 mps 762 mmHg 98%
    20:00 +22°C° 0.9 mm 4 mps 762 mmHg 98%
    21:00 +22°C° 0.9 mm 5 mps 763 mmHg 98%
    22:00 +22°C° 1.6 mm 5 mps 763 mmHg 99%
    23:00 +22°C° 1.6 mm 5 mps 762 mmHg 99%

    26 January, Friday

    Time Temperature Precipitation Wind Pressure Humidity
    00:00 +22°C° 1.6 mm 5 mps 762 mmHg 99%
    01:00 +23°C° 3.3 mm 6 mps 762 mmHg 99%
    02:00 +23°C° 3.3 mm 6 mps 761 mmHg 99%
    03:00 +23°C° 3.3 mm 6 mps 761 mmHg 99%
    04:00 +23°C° 4.9 mm 6 mps 761 mmHg 98%
    05:00 +23°C° 4.9 mm 7 mps 761 mmHg 98%
    06:00 +23°C° 4.9 mm 7 mps 761 mmHg 98%
    07:00 +23°C° 2.6 mm 7 mps 762 mmHg 98%
    08:00 +23°C° 2.6 mm 7 mps 762 mmHg 97%
    09:00 +23°C° 2.6 mm 6 mps 763 mmHg 97%
    10:00 +24°C° 1.1 mm 6 mps 762 mmHg 97%
    11:00 +25°C° 1.1 mm 5 mps 762 mmHg 96%
    12:00 +25°C° 1.1 mm 5 mps 762 mmHg 96%
    13:00 +26°C° 0.7 mm 5 mps 761 mmHg 95%
    14:00 +26°C° 0.7 mm 5 mps 761 mmHg 95%
    15:00 +26°C° 0.7 mm 4 mps 760 mmHg 95%
    16:00 +25°C° 0.4 mm 4 mps 760 mmHg 96%
    17:00 +23°C° 0.4 mm 4 mps 760 mmHg 97%
    18:00 +23°C° 0.4 mm 4 mps 760 mmHg 98%
    19:00 +23°C° 0.5 mm 4 mps 760 mmHg 98%
    20:00 +23°C° 0.5 mm 4 mps 761 mmHg 98%
    21:00 +22°C° 0.5 mm 4 mps 761 mmHg 99%
    22:00 +22°C° 0.8 mm 4 mps 761 mmHg 99%
    23:00 +22°C° 0.8 mm 4 mps 761 mmHg 99%

    27 January, Saturday

    Time Temperature Precipitation Wind Pressure Humidity
    00:00 +22°C° 0.8 mm 4 mps 760 mmHg 99%
    01:00 +22°C° 1 mm 4 mps 760 mmHg 99%
    02:00 +22°C° 1 mm 4 mps 760 mmHg 99%
    03:00 +22°C° 1 mm 4 mps 759 mmHg 99%
    04:00 +22°C° 1.4 mm 4 mps 760 mmHg 99%
    05:00 +22°C° 1.4 mm 4 mps 760 mmHg 99%
    06:00 +22°C° 1.4 mm 4 mps 760 mmHg 99%
    07:00 +23°C° 1.9 mm 4 mps 761 mmHg 98%
    08:00 +25°C° 1.9 mm 4 mps 761 mmHg 96%
    09:00 +26°C° 1.9 mm 4 mps 761 mmHg 95%
    10:00 +26°C° 1.5 mm 4 mps 761 mmHg 94%
    11:00 +27°C° 1.5 mm 4 mps 761 mmHg 92%
    12:00 +28°C° 1.5 mm 4 mps 760 mmHg 91%
    13:00 +28°C° 0.5 mm 4 mps 760 mmHg 89%
    14:00 +28°C° 0.5 mm 4 mps 759 mmHg 87%
    15:00 +28°C° 0.5 mm 4 mps 758 mmHg 86%
    16:00 +27°C° 0.1 mm 4 mps 759 mmHg 88%
    17:00 +26°C° 0.1 mm 4 mps 759 mmHg 90%
    18:00 +25°C° 0.1 mm 3 mps 759 mmHg 92%
    19:00 +25°C° 0.1 mm 3 mps 759 mmHg 94%
    20:00 +24°C° 0.1 mm 3 mps 760 mmHg 96%
    21:00 +24°C° 0.1 mm 3 mps 760 mmHg 98%
    22:00 +24°C° 0.2 mm 3 mps 760 mmHg 98%
    23:00 +22°C° 0.2 mm 3 mps 760 mmHg 98%
    Show more